Вернуться в каталог

COSMOS 1295

АктивенВоенныеPO
NORAD 12681·PAYLOAD·🇷🇺 Russia

Запущен Aug 12, 1981 с Plesetsk Cosmodrome

Loading…

Ближайшие Пролёты (ближайшие 24 часа)

TLE

СвежийSource: Space-Track

Эпоха: Sep 14, 2026, 11:29 UTC

1 12681U 81077A   26257.47851676  .00000042  00000-0  27481-4 0  9999
2 12681  82.9161  54.1019 0044508  26.0780 348.6993 13.76652124264530

Отслеживайте COSMOS 1295 в реальном времени с AllMySat

Download on the App Store